Location: Bukit Nyuki
(2.5885°N, 113.7476°E)
Time: 16:19:01
(UTC+00:00)

ARIANE 5 R/B - Pass Details

Date: 18 May 2021
Orbit: 271 x 34070 km, 1.9° (Epoch: 20 June)

Event Time Altitude Azimuth Distance (km) Brightness Sun altitude
Rises 12:15:27 0° 267° (W) 14,431 10.0 -25.7°
Reaches altitude 10° 12:35:00 10° 267° (W) 7,840 8.3 -30.2°
Enters shadow 12:50:22 62° 246° (WSW) 1,165 3.4 -33.6°
